Temp_Advection
nan nan nan nan nan nan nan nan nan nan nan nan nan nan nan nan nan nan nan nan nan nan nan nan nan nan nan
nan 1 1 1 0 0 0 0 0 0 0 -0 -0 -0 -0 -0 -0 -0 -0 -0 -0 -0 -0 -0 -0 -0 nan
nan 1 1 1 1 0 0 0 0 0 0 0 -0 -0 -0 -0 -0 -0 -0 -0 -0 -0 -0 -1 -1 -1 nan
nan 1 1 1 0 0 0 0 0 0 0 0 0 -0 -0 -0 -0 -0 -0 -0 0 0 0 -0 -0 -0 nan
nan 1 1 1 0 0 0 0 0 0 0 0 -0 -0 -0 -0 -0 -0 0 0 0 0 0 0 0 0 nan
nan 0 1 0 0 0 0 0 0 0 0 0 -0 -0 -0 -0 -0 -0 -0 -0 0 0 0 0 0 0 nan
nan 1 1 1 1 0 0 0 0 0 0 -0 0 0 -0 -0 -0 -0 -0 0 0 0 -0 0 -0 -0 nan
nan 1 1 1 1 0 0 0 0 0 0 0 -0 0 -0 -0 -0 -0 0 0 0 0 -0 -0 -0 -0 nan
nan 0 0 0 0 0 0 0 0 -0 0 0 -0 0 -0 -0 0 0 0 0 -0 -0 -0 -0 -0 -0 nan
nan 0 0 0 0 0 0 0 0 -0 -0 0 0 -0 -0 -0 0 0 0 -0 0 0 -0 -0 -0 -0 nan
nan 0 0 0 0 0 0 0 0 0 0 0 0 0 -0 -1 -1 0 -0 -0 -0 -0 0 0 0 0 nan
nan 0 0 0 0 0 0 0 0 0 0 0 0 0 -0 -1 -1 -1 -0 -0 -0 -0 -0 -0 -0 0 nan
nan 0 0 0 0 0 0 0 0 0 0 0 0 -0 0 -0 -1 -1 -1 -1 -0 -0 -0 -1 -0 -0 nan
nan 0 0 0 0 0 0 0 0 0 0 0 0 -0 -0 0 -0 -1 0 -0 -1 -0 -0 -1 -0 0 nan
nan 0 0 0 0 0 0 0 -0 -0 0 0 0 0 -0 -0 -0 -0 -0 -0 -0 -0 -0 -1 -1 0 nan
nan 0 0 0 0 0 0 0 -0 -0 -0 0 0 0 -1 -1 -0 -0 0 -0 -0 -0 0 -0 -2 -1 nan
nan nan nan nan nan nan nan nan nan nan nan nan nan nan nan nan nan nan nan nan nan nan nan nan nan nan nan
Wind_Speed
18 18 18 16 13 11 9 8 7 6 7 7 7 8 9 10 10 10 10 10 11 12 12 13 14 14 13
17 19 18 17 15 12 10 8 8 7 6 7 8 9 9 9 9 10 10 11 11 11 12 13 14 15 15
16 20 19 18 15 12 11 10 10 7 7 8 8 8 8 9 10 10 11 12 13 14 14 15 16 16 15
17 17 19 18 16 13 12 10 10 8 8 8 8 9 10 11 11 12 13 15 15 14 13 11 15 16 14
17 19 20 19 17 15 13 11 10 9 9 9 9 10 11 12 13 14 16 16 17 16 15 15 14 14 13
18 18 18 18 16 14 13 11 9 10 10 11 10 12 13 14 15 15 15 16 16 16 16 15 14 14 16
14 16 16 16 15 13 12 11 11 10 10 11 12 13 15 16 14 15 16 16 15 15 14 13 16 22 21
15 13 14 14 13 13 12 11 10 11 12 11 15 13 14 14 14 16 15 14 13 14 16 20 22 21 21
13 13 13 13 12 11 11 10 11 12 13 14 15 14 14 13 13 13 10 13 18 19 21 21 22 22 21
14 13 13 13 12 11 10 11 12 12 14 11 12 13 9 12 9 9 16 19 18 19 20 20 20 19 18
13 14 13 12 11 12 12 12 13 12 16 13 14 14 14 16 16 17 18 17 17 18 17 16 15 19 21
14 14 13 12 13 13 13 13 13 13 15 14 17 16 18 20 22 19 20 19 19 19 16 17 21 19 20
15 14 13 13 14 14 14 14 14 14 15 17 19 20 20 22 24 24 24 22 19 16 23 23 22 23 24
15 15 15 15 15 15 15 15 16 16 17 18 20 21 22 22 24 25 22 23 23 23 25 25 25 24 25
17 16 16 17 17 17 17 17 18 18 17 18 19 21 23 23 26 24 24 24 24 23 25 27 25 26 26
18 19 19 19 19 18 19 19 20 20 19 19 22 23 23 24 23 21 22 24 24 24 25 28 31 26 27
22 21 21 22 21 21 21 22 22 22 21 22 23 24 24 25 23 23 23 22 25 27 27 28 31 31 29
Wind_Direction
227 222 217 217 220 225 233 244 259 262 275 287 296 305 312 318 321 324 326 325 325 325 325 326 326 330 340
224 215 214 214 218 222 225 230 243 252 268 285 292 297 302 307 311 316 319 320 317 317 317 316 315 319 322
224 215 216 215 216 218 218 221 236 250 268 276 285 293 301 305 309 313 315 312 314 313 311 310 314 317 321
219 215 213 212 209 211 214 222 240 253 261 272 282 289 295 300 305 308 306 305 307 305 306 305 312 318 324
209 206 209 207 207 208 213 228 238 247 259 268 280 290 296 299 301 302 300 300 301 301 299 295 300 305 317
209 207 208 204 207 211 217 218 234 248 257 271 282 287 293 295 298 297 296 298 299 302 301 301 301 304 309
220 210 210 212 213 211 216 224 235 252 262 275 282 288 293 295 296 295 294 297 300 297 296 296 301 305 304
196 205 203 206 205 212 221 232 246 259 270 280 285 287 288 288 291 287 294 299 301 299 295 300 307 307 306
194 196 200 205 210 220 227 239 257 269 275 280 283 284 290 291 286 286 284 293 301 296 296 301 303 303 305
195 199 204 210 216 228 240 251 262 275 276 272 277 288 298 291 277 277 286 297 298 298 299 299 299 301 302
203 207 213 220 230 240 250 258 265 263 272 278 281 290 290 284 287 292 296 299 299 300 300 298 298 304 304
214 218 224 233 243 253 261 265 265 263 274 278 284 288 287 291 295 300 303 305 305 305 300 300 304 303 304
224 229 235 244 253 260 266 268 268 269 274 281 284 286 287 289 294 298 305 306 305 302 305 305 307 308 307
230 234 242 252 260 264 266 265 267 274 280 283 285 286 287 289 291 295 300 296 300 302 302 302 305 305 303
234 241 251 256 260 265 265 266 271 278 281 283 283 286 288 290 289 295 297 294 298 300 297 297 298 299 300
244 250 254 258 262 264 265 268 274 280 284 287 290 292 292 290 286 293 290 294 297 295 294 296 296 298 298
249 253 258 261 260 264 267 270 274 279 284 286 288 292 294 290 292 295 292 292 293 292 295 294 295 298 299
Height
1603 1604 1606 1608 1610 1611 1612 1612 1613 1612 1613 1613 1614 1613 1613 1611 1610 1609 1608 1607 1606 1605 1604 1602 1601 1599 1598
1599 1601 1603 1605 1607 1609 1610 1610 1611 1611 1612 1611 1612 1611 1611 1610 1609 1608 1607 1606 1604 1603 1602 1601 1599 1597 1596
1595 1597 1598 1601 1604 1606 1607 1609 1609 1610 1610 1610 1610 1609 1609 1608 1607 1606 1604 1603 1602 1600 1599 1597 1596 1594 1592
1591 1593 1596 1598 1600 1603 1605 1606 1607 1608 1607 1608 1607 1607 1606 1606 1605 1604 1601 1600 1599 1598 1596 1594 1593 1591 1589
1588 1590 1592 1595 1597 1600 1602 1603 1605 1606 1606 1606 1605 1604 1603 1602 1602 1600 1598 1596 1595 1593 1592 1591 1589 1587 1585
1585 1586 1591 1593 1595 1598 1599 1600 1601 1603 1604 1603 1603 1601 1601 1599 1598 1596 1594 1592 1591 1590 1589 1587 1585 1583 1581
1584 1585 1587 1591 1593 1595 1597 1597 1598 1599 1600 1599 1599 1598 1597 1595 1593 1592 1590 1589 1588 1587 1585 1584 1582 1580 1577
1580 1583 1586 1589 1591 1594 1594 1595 1595 1597 1597 1596 1595 1594 1593 1592 1590 1588 1587 1586 1585 1583 1581 1579 1577 1574 1572
1579 1582 1584 1587 1588 1591 1592 1592 1592 1593 1592 1591 1590 1590 1590 1588 1585 1584 1584 1583 1581 1579 1577 1575 1572 1569 1567
1577 1580 1583 1584 1584 1587 1589 1589 1589 1589 1588 1589 1587 1587 1586 1584 1583 1582 1580 1578 1576 1574 1572 1570 1567 1565 1563
1575 1578 1580 1581 1582 1584 1585 1586 1586 1585 1583 1584 1583 1583 1582 1580 1579 1578 1576 1573 1571 1569 1568 1565 1563 1560 1557
1574 1576 1576 1577 1579 1580 1581 1582 1581 1581 1579 1579 1579 1578 1577 1575 1573 1573 1571 1569 1566 1564 1562 1560 1558 1555 1553
1572 1572 1573 1575 1575 1575 1575 1577 1577 1576 1575 1575 1574 1573 1572 1570 1568 1567 1565 1563 1560 1558 1556 1553 1551 1549 1546
1568 1569 1570 1571 1572 1572 1571 1572 1572 1571 1571 1569 1568 1567 1566 1565 1563 1561 1561 1558 1556 1553 1550 1547 1546 1543 1540
1564 1564 1565 1567 1567 1567 1567 1567 1566 1566 1566 1565 1563 1561 1560 1559 1556 1556 1554 1551 1549 1546 1544 1541 1540 1538 1534
1560 1560 1561 1562 1562 1562 1561 1561 1561 1561 1561 1560 1557 1555 1553 1552 1552 1550 1548 1545 1543 1540 1538 1534 1532 1532 1528
1555 1555 1556 1556 1556 1555 1555 1555 1554 1554 1554 1554 1553 1551 1547 1545 1545 1544 1541 1539 1537 1534 1532 1529 1524 1522 1520